Flag for Iran Weather past 2 weeks in Bandar-Abbas, Iran

Now
93 °F

Sandstorm.


Feels Like: 105 °F
Forecast: 81 / 98 °F
Wind: 16 mph from South

Location: Bandarabbass

Current Time: May 27, 2015 at 2:53:14 PM

Latest Report: May 27, 2015 at 2:00 PM


Visibility: 2 mi

Pressure: 29.59 "Hg

Humidity: 56%

Dew point: 75 °F

Location of Bandar-AbbasLocation

Historic Weather in Bandar-Abbas — Graph

°F

Bandar-Abbas temperature yesterday

Maximum temperature yesterday: 100 °F (at 3:30 PM)
Minimum temperature yesterday: 82 °F (at 5:30 AM)
Average temperature yesterday: 91 °F

Past Weeks' High & Low Weather Summary

 TemperatureHumidityPressure
High108 °F (May 12, 2:00 PM)94% (May 21, 12:30 AM)29.80 "Hg (May 21, 12:30 AM)
Low75 °F (May 19, 4:30 AM)9% (May 22, 3:00 PM)29.47 "Hg (May 17, 5:00 PM)
Average91 °F58%29.64 "Hg
* Reported May 12 1:30 PM — May 27 1:30 PM, Bandar-Abbas, Weather by CustomWeather, © 2015

Note: Actual official high and low records may vary slightly from our data, if they occured in-between our weather recording intervals... More about our weather records

Advertising

Bandar-Abbas weather history for previous 24 hours

 ConditionsComfort  
Time TempWeatherWind HumidityBarometerVisibility
1:30 PM
Wed, May 27
93 °FSandstorm.18 mph59%29.62 "Hg2 mi
12:30 PM93 °FSandstorm.18 mph63%29.62 "Hg3 mi
11:30 AM93 °FHaze.12 mph63%29.65 "Hg3 mi
11:00 AM97 °FHaze.12 mph60%29.65 "Hg3 mi
10:30 AM95 °FHaze.5 mph53%29.65 "Hg3 mi
10:00 AM93 °FHaze.5 mph56%29.65 "Hg3 mi
9:20 AM90 °FHaze.7 mph63%29.65 "Hg3 mi
9:00 AM90 °FHaze.5 mph63%29.65 "Hg3 mi
8:30 AM88 °FHaze.7 mph70%29.65 "Hg3 mi
8:00 AM86 °FHaze.7 mph70%29.62 "Hg3 mi
7:30 AM86 °FHaze.7 mph70%29.62 "Hg3 mi
7:00 AM84 °FHaze.5 mph70%29.62 "Hg3 mi
6:30 AM82 °FHaze.5 mph74%29.62 "Hg2 mi
5:30 AM81 °FHaze.5 mph79%29.59 "Hg2 mi
4:30 AM84 °FHaze.5 mph70%29.59 "Hg2 mi
3:30 AM86 °FHaze.7 mph70%29.59 "Hg2 mi
2:30 AM86 °FHaze.7 mph70%29.59 "Hg2 mi
2:00 AM86 °FHaze.9 mph75%29.59 "Hg2 mi
1:30 AM84 °FHaze.5 mph79%29.59 "Hg2 mi
1:00 AM86 °FHaze.7 mph75%29.59 "Hg3 mi
12:30 AM86 °FHaze.5 mph75%29.59 "Hg3 mi
12:00 AM88 °FHaze.5 mph75%29.59 "Hg3 mi
11:30 PM
Tue, May 26
88 °FHaze.5 mph75%29.59 "Hg3 mi
11:00 PM88 °FHaze.5 mph75%29.59 "Hg3 mi
10:20 PM88 °FHaze.12 mph75%29.59 "Hg3 mi
10:00 PM88 °FHaze.9 mph75%29.59 "Hg3 mi
9:30 PM88 °FHaze.9 mph75%29.59 "Hg3 mi
9:00 PM88 °FHaze.9 mph75%29.59 "Hg3 mi
8:30 PM90 °FHaze.9 mph71%29.56 "Hg3 mi
8:00 PM90 °FHaze.14 mph71%29.59 "Hg3 mi
7:30 PM90 °FHaze.14 mph71%29.56 "Hg3 mi
7:00 PM91 °FHaze.12 mph63%29.56 "Hg3 mi
6:30 PM93 °FHaze.14 mph56%29.56 "Hg2 mi
6:00 PM93 °FHaze.12 mph47%29.56 "Hg2 mi
5:20 PM97 °FSandstorm.18 mph39%29.56 "Hg2 mi
5:00 PM99 °FSandstorm.18 mph37%29.56 "Hg2 mi
4:30 PM99 °FSandstorm.18 mph37%29.56 "Hg2 mi
4:00 PM99 °FSandstorm.16 mph42%29.56 "Hg2 mi
3:30 PM100 °FSandstorm.18 mph40%29.59 "Hg2 mi
3:00 PM99 °FSandstorm.16 mph53%29.59 "Hg2 mi
2:30 PM99 °FHaze.12 mph50%29.62 "Hg2 mi
2:00 PM97 °FHaze.14 mph60%29.62 "Hg2 mi
Weather by CustomWeather, © 2015

See weather overviewHow to use our weather pages